Hourly Data Report for October 30, 2019

All times are specified in Local Standard Time (LST). Add 1 hour to adjust for Daylight Saving Time where and when it is observed.

CORAL HARBOUR A
NUNAVUT
Current Station Operator: NAVCAN

64°11'36.000" N
83°21'34.000" W
62.20 m
2301002
71915
YZS

Download Data

Hourly Data (October 2019)
Hourly Data Report for October 30, 2019
TIME Temp Definition
°C
Dew Point Definition
°C
Rel Hum Definition
%
Wind Dir Definition
10's deg

Wind Spd Definition
km/h
Visibility Definition
km
Stn Press Definition
kPa
Hmdx Definition


Wind Chill Definition


Weather Definition


00:00 -3.4 -4.0 95 27 19 24.1 100.52   -9 Snow
01:00 -3.1 -4.2 93 27 21 24.1 100.52   -9 Snow
02:00
03:00
04:00
05:00 -3.1 -4.2 92 29 20 19.3 100.47   -9 Snow
06:00 -3.1 -4.1 93 28 20 9.7 100.47   -9 Snow
07:00 -3.9 -4.8 94 27 16 19.3 100.46   -9 Snow
08:00 -4.5 -5.3 94 32 14 19.3 100.45   -10 Snow
09:00 -3.8 -5.1 91 29 14 9.7 100.42   -9 Snow
10:00 -3.9 -5.0 93 28 16 9.7 100.37   -9 Snow
11:00 -5.6 -6.6 93 27 20 19.3 100.35   -12 Snow
12:00 -3.3 -4.5 92 28 26 24.1 100.32   -10 Snow
13:00 -3.4 -4.5 92 26 17 24.1 100.31   -9 Snow
14:00 -3.2 -4.1 94 26 20 19.3 100.31   -9 Snow
15:00 -3.0 -3.8 94 26 20 19.3 100.30   -9 Snow
16:00 -3.0 -3.5 96 25 14 1.6 100.28   -8 Snow
17:00 -2.8 -3.3 96 26 14 3.2 100.23   -8 Snow
18:00 -2.9 -3.6 95 26 14 3.2 100.21   -8 Snow
19:00 -3.0 -3.6 96 26 10 3.2 100.19   -7 Snow
20:00 -3.0 -3.6 96 24 8 9.7 100.14   -6 Snow
21:00 -2.6 -3.2 96 28 15 4.8 100.12   -8 Snow
22:00 -2.8 -3.5 95 27 19 6.4 100.08   -9 Snow
23:00 -2.8 -3.7 94 28 25 12.9 100.05   -10 Snow

Notes on Data Quality.

Legend

  • E = Estimated
  • M = Missing
  • NA = Not Available
Date modified: